Schneifelwetter: Wetterstation Hallschlag, 537 m . NN
Wetterdaten: Samstag, 08.08.2009
Datum Zeit Temp. A. Feuchte A. Luftdruck Regen Wind Richtung Richtung Sonnenschein Helligkeit T Regen Taupunkt Windchill
08.08.2009 00:00 16,1 C 86 % 1018 hPa 0,0 l/m 0,0 km/h (0 Bft) N-NW 330 0 min 0 lux 0,00 min 13,8 C 16,1 C
08.08.2009 00:15 16,0 C 87 % 1018 hPa 0,3 l/m 0,6 km/h (0 Bft) N-NW22.5 345 0 min 0 lux 15,00 min 13,8 C 16,0 C
08.08.2009 00:30 16,0 C 88 % 1018 hPa 0,0 l/m 3,0 km/h (1 Bft) W 260 0 min 0 lux 0,00 min 14,0 C 16,0 C
08.08.2009 00:45 16,0 C 88 % 1018 hPa 0,0 l/m 6,3 km/h (2 Bft) W-SW 255 0 min 0 lux 0,00 min 14,0 C 16,0 C
08.08.2009 01:00 15,9 C 88 % 1018 hPa 0,0 l/m 0,1 km/h (0 Bft) W 270 0 min 0 lux 0,00 min 13,9 C 15,9 C
08.08.2009 01:15 15,8 C 88 % 1018 hPa 0,0 l/m 0,0 km/h (0 Bft) W 270 0 min 0 lux 0,00 min 13,8 C 15,8 C
08.08.2009 01:30 15,9 C 88 % 1018 hPa 0,0 l/m 2,5 km/h (1 Bft) W 270 0 min 0 lux 0,00 min 13,9 C 15,9 C
08.08.2009 01:45 15,8 C 88 % 1018 hPa 0,0 l/m 0,0 km/h (0 Bft) W 270 0 min 0 lux 0,00 min 13,8 C 15,8 C
08.08.2009 02:01 15,7 C 89 % 1018 hPa 0,0 l/m 0,4 km/h (0 Bft) W 270 0 min 0 lux 0,00 min 13,9 C 15,7 C
08.08.2009 02:16 15,7 C 89 % 1018 hPa 0,0 l/m 0,0 km/h (0 Bft) W 270 0 min 0 lux 0,00 min 13,9 C 15,7 C
08.08.2009 02:31 15,8 C 90 % 1018 hPa 0,0 l/m 0,0 km/h (0 Bft) W 270 0 min 0 lux 0,00 min 14,2 C 15,8 C
08.08.2009 02:46 16,0 C 91 % 1018 hPa 0,0 l/m 6,3 km/h (2 Bft) N-NO22.5 30 0 min 0 lux 0,00 min 14,5 C 16,0 C
08.08.2009 03:01 16,3 C 91 % 1018 hPa 0,0 l/m 5,4 km/h (1 Bft) N45 355 0 min 0 lux 0,00 min 14,8 C 16,3 C
08.08.2009 03:16 16,4 C 91 % 1018 hPa 0,0 l/m 0,4 km/h (0 Bft) NW22.5 320 0 min 0 lux 0,00 min 14,9 C 16,4 C
08.08.2009 03:31 16,5 C 91 % 1018 hPa 0,0 l/m 5,4 km/h (1 Bft) NW22.5 325 0 min 0 lux 0,00 min 15,0 C 16,5 C
08.08.2009 03:46 16,6 C 90 % 1018 hPa 0,0 l/m 4,2 km/h (1 Bft) NW22.5 320 0 min 0 lux 0,00 min 15,0 C 16,6 C
08.08.2009 04:01 16,6 C 91 % 1018 hPa 0,0 l/m 0,1 km/h (0 Bft) NW 305 0 min 0 lux 0,00 min 15,1 C 16,6 C
08.08.2009 04:16 16,6 C 91 % 1018 hPa 0,0 l/m 0,0 km/h (0 Bft) NW 305 0 min 0 lux 0,00 min 15,1 C 16,6 C
08.08.2009 04:30 16,6 C 91 % 1018 hPa 0,3 l/m 0,0 km/h (0 Bft) NW 305 0 min 0 lux 14,00 min 15,1 C 16,6 C
08.08.2009 04:45 16,6 C 91 % 1018 hPa 1,8 l/m 0,3 km/h (0 Bft) NW 305 0 min 0 lux 15,00 min 15,1 C 16,6 C
08.08.2009 05:00 16,6 C 91 % 1018 hPa 0,3 l/m 0,0 km/h (0 Bft) NW 305 0 min 0 lux 15,00 min 15,1 C 16,6 C
08.08.2009 05:15 16,5 C 92 % 1018 hPa 0,0 l/m 5,4 km/h (1 Bft) N45 5 0 min 0 lux 0,00 min 15,2 C 16,5 C
08.08.2009 05:30 16,4 C 92 % 1018 hPa 0,0 l/m 7,2 km/h (2 Bft) N-NO22.5 20 0 min 0 lux 0,00 min 15,1 C 16,0 C
08.08.2009 05:45 16,4 C 92 % 1018 hPa 0,0 l/m 9,1 km/h (2 Bft) N22.5 5 0 min 0 lux 0,00 min 15,1 C 15,1 C
08.08.2009 06:00 16,4 C 92 % 1018 hPa 0,0 l/m 6,5 km/h (2 Bft) N45 360 0 min 0 lux 0,00 min 15,1 C 16,4 C
08.08.2009 06:15 16,4 C 92 % 1018 hPa 0,0 l/m 9,4 km/h (2 Bft) N22.5 5 0 min 107 lux 0,00 min 15,1 C 14,9 C
08.08.2009 06:30 16,3 C 93 % 1018 hPa 0,0 l/m 11,6 km/h (2 Bft) N-NO22.5 20 0 min 280 lux 0,00 min 15,2 C 13,9 C
08.08.2009 06:45 16,2 C 93 % 1018 hPa 0,0 l/m 15,3 km/h (3 Bft) N22.5 5 0 min 692 lux 0,00 min 15,1 C 12,6 C
08.08.2009 07:00 16,3 C 93 % 1018 hPa 0,0 l/m 8,5 km/h (2 Bft) N-NW45 340 0 min 1,31 klux 0,00 min 15,2 C 15,2 C
08.08.2009 07:15 16,2 C 93 % 1018 hPa 0,0 l/m 7,3 km/h (2 Bft) N-NW22.5 345 0 min 2,99 klux 0,00 min 15,1 C 15,7 C
08.08.2009 07:30 16,4 C 93 % 1018 hPa 0,0 l/m 9,4 km/h (2 Bft) N22.5 355 0 min 5,05 klux 0,00 min 15,3 C 14,9 C
08.08.2009 07:45 16,4 C 93 % 1018 hPa 0,3 l/m 7,2 km/h (2 Bft) N-NW67.5 335 0 min 4,82 klux 15,00 min 15,3 C 16,0 C
08.08.2009 08:00 16,4 C 93 % 1018 hPa 0,0 l/m 11,1 km/h (2 Bft) N-NW22.5 335 0 min 4,82 klux 0,00 min 15,3 C 14,2 C
08.08.2009 08:15 16,4 C 93 % 1018 hPa 0,0 l/m 9,2 km/h (2 Bft) NW22.5 320 0 min 7,69 klux 0,00 min 15,3 C 15,0 C
08.08.2009 08:30 16,6 C 92 % 1018 hPa 0,0 l/m 8,8 km/h (2 Bft) NW22.5 325 0 min 10,2 klux 0,00 min 15,3 C 15,4 C
08.08.2009 08:45 16,5 C 92 % 1018 hPa 0,0 l/m 11,9 km/h (2 Bft) N22.5 10 0 min 6,60 klux 0,00 min 15,2 C 14,0 C
08.08.2009 09:00 16,5 C 92 % 1018 hPa 0,0 l/m 11,5 km/h (2 Bft) N22.5 360 0 min 10,5 klux 0,00 min 15,2 C 14,2 C
08.08.2009 09:15 16,8 C 92 % 1018 hPa 0,0 l/m 6,3 km/h (2 Bft) N-NO22.5 15 0 min 15,4 klux 0,00 min 15,5 C 16,8 C
08.08.2009 09:30 17,2 C 91 % 1018 hPa 0,0 l/m 10,8 km/h (2 Bft) NW45 320 0 min 14,5 klux 0,00 min 15,7 C 15,2 C
08.08.2009 09:45 17,2 C 90 % 1018 hPa 0,0 l/m 11,6 km/h (2 Bft) N22.5 360 0 min 15,2 klux 0,00 min 15,5 C 14,9 C
08.08.2009 10:00 17,1 C 89 % 1019 hPa 0,0 l/m 13,6 km/h (3 Bft) N22.5 350 0 min 12,9 klux 0,00 min 15,3 C 14,2 C
08.08.2009 10:15 17,0 C 89 % 1019 hPa 0,0 l/m 12,1 km/h (2 Bft) N22.5 5 0 min 13,0 klux 0,00 min 15,2 C 14,5 C
08.08.2009 10:31 16,8 C 90 % 1019 hPa 0,0 l/m 13,5 km/h (3 Bft) N22.5 10 0 min 12,6 klux 0,00 min 15,1 C 13,8 C
08.08.2009 10:45 16,5 C 91 % 1019 hPa 0,0 l/m 13,4 km/h (3 Bft) N-NO22.5 20 0 min 9,3 klux 0,00 min 15,0 C 13,5 C
08.08.2009 11:00 16,8 C 91 % 1019 hPa 0,0 l/m 15,4 km/h (3 Bft) N-NO45 30 0 min 37,8 klux 0,00 min 15,3 C 13,3 C
08.08.2009 11:15 17,0 C 90 % 1019 hPa 0,0 l/m 15,5 km/h (3 Bft) N-NO22.5 15 0 min 20,7 klux 0,00 min 15,3 C 13,5 C
08.08.2009 11:30 17,2 C 89 % 1019 hPa 0,0 l/m 12,7 km/h (3 Bft) N22.5 10 0 min 21,3 klux 0,00 min 15,4 C 14,6 C
08.08.2009 11:45 17,0 C 89 % 1019 hPa 0,0 l/m 12,3 km/h (3 Bft) N-NO22.5 20 0 min 14,6 klux 0,00 min 15,2 C 14,5 C
08.08.2009 12:00 17,1 C 89 % 1019 hPa 0,0 l/m 12,7 km/h (3 Bft) N-NW22.5 335 0 min 27,7 klux 0,00 min 15,3 C 14,5 C
08.08.2009 12:15 17,4 C 88 % 1019 hPa 0,0 l/m 12,3 km/h (3 Bft) N-NW45 345 0 min 29,7 klux 0,00 min 15,4 C 14,9 C
08.08.2009 12:30 17,5 C 86 % 1019 hPa 0,0 l/m 13,9 km/h (3 Bft) N-NW45 335 0 min 24,6 klux 0,00 min 15,1 C 14,5 C
08.08.2009 12:45 17,6 C 86 % 1019 hPa 0,0 l/m 11,1 km/h (2 Bft) N22.5 360 0 min 21,8 klux 0,00 min 15,2 C 15,6 C
08.08.2009 13:00 17,6 C 86 % 1019 hPa 0,0 l/m 12,3 km/h (3 Bft) N22.5 360 0 min 19,4 klux 0,00 min 15,2 C 15,2 C
08.08.2009 13:15 17,7 C 86 % 1019 hPa 0,0 l/m 14,2 km/h (3 Bft) N-NO22.5 15 0 min 31,7 klux 0,00 min 15,3 C 14,7 C
08.08.2009 13:30 17,6 C 86 % 1019 hPa 0,0 l/m 15,1 km/h (3 Bft) N-NO22.5 20 0 min 25,7 klux 0,00 min 15,2 C 14,3 C
08.08.2009 13:45 17,2 C 86 % 1019 hPa 0,0 l/m 14,3 km/h (3 Bft) N22.5 350 0 min 14,7 klux 0,00 min 14,8 C 14,1 C
08.08.2009 14:01 17,2 C 86 % 1019 hPa 0,0 l/m 14,4 km/h (3 Bft) N45 10 0 min 20,5 klux 0,00 min 14,8 C 14,0 C
08.08.2009 14:15 17,3 C 86 % 1019 hPa 0,0 l/m 14,1 km/h (3 Bft) N67.5 10 0 min 20,2 klux 0,00 min 14,9 C 14,2 C
08.08.2009 14:30 17,2 C 86 % 1019 hPa 0,0 l/m 16,0 km/h (3 Bft) N-NO22.5 15 0 min 26,6 klux 0,00 min 14,8 C 13,6 C
08.08.2009 14:45 16,9 C 87 % 1019 hPa 0,0 l/m 16,1 km/h (3 Bft) N22.5 10 0 min 17,9 klux 0,00 min 14,7 C 13,2 C
08.08.2009 15:00 16,8 C 87 % 1019 hPa 0,0 l/m 14,3 km/h (3 Bft) N-NO67.5 25 0 min 15,7 klux 0,00 min 14,6 C 13,6 C
08.08.2009 15:15 16,4 C 87 % 1019 hPa 0,0 l/m 17,6 km/h (3 Bft) N-NW67.5 330 0 min 10,9 klux 0,00 min 14,2 C 12,2 C
08.08.2009 15:16 16,4 C 87 % 1019 hPa 0,0 l/m 17,6 km/h (3 Bft) N-NW67.5 330 0 min 10,9 klux 0,00 min 14,2 C 12,2 C
08.08.2009 15:30 16,2 C 88 % 1019 hPa 0,0 l/m 10,6 km/h (2 Bft) N-NW45 345 0 min 11,3 klux 0,00 min 14,2 C 14,2 C
08.08.2009 15:45 16,4 C 88 % 1019 hPa 0,0 l/m 12,0 km/h (2 Bft) N-NO22.5 15 0 min 20,0 klux 0,00 min 14,4 C 13,9 C
08.08.2009 16:00 16,8 C 87 % 1018 hPa 0,0 l/m 11,5 km/h (2 Bft) N22.5 350 0 min 22,7 klux 0,00 min 14,6 C 14,5 C
08.08.2009 16:15 16,8 C 87 % 1019 hPa 0,0 l/m 12,0 km/h (2 Bft) N-NO45 25 0 min 12,0 klux 0,00 min 14,6 C 14,3 C
08.08.2009 16:30 16,4 C 87 % 1019 hPa 0,0 l/m 16,2 km/h (3 Bft) N-NO22.5 25 0 min 10,4 klux 0,00 min 14,2 C 12,5 C
08.08.2009 16:45 16,2 C 88 % 1019 hPa 0,0 l/m 16,5 km/h (3 Bft) N-NO22.5 30 0 min 15,6 klux 0,00 min 14,2 C 12,2 C
08.08.2009 17:00 16,5 C 87 % 1019 hPa 0,0 l/m 15,6 km/h (3 Bft) N-NO22.5 30 0 min 21,6 klux 0,00 min 14,3 C 12,8 C
08.08.2009 17:16 16,5 C 86 % 1019 hPa 0,0 l/m 15,6 km/h (3 Bft) N-NO22.5 20 0 min 13,1 klux 0,00 min 14,1 C 12,8 C
08.08.2009 17:30 16,4 C 86 % 1019 hPa 0,0 l/m 12,6 km/h (3 Bft) N-NO22.5 15 0 min 18,9 klux 0,00 min 14,1 C 13,7 C
08.08.2009 17:45 16,7 C 87 % 1019 hPa 0,0 l/m 11,9 km/h (2 Bft) N-NW22.5 335 0 min 17,4 klux 0,00 min 14,5 C 14,3 C
08.08.2009 18:00 16,6 C 86 % 1019 hPa 0,0 l/m 12,3 km/h (3 Bft) N22.5 350 0 min 19,6 klux 0,00 min 14,2 C 14,0 C
08.08.2009 18:15 16,6 C 86 % 1019 hPa 0,0 l/m 11,5 km/h (2 Bft) NW22.5 320 0 min 15,9 klux 0,00 min 14,2 C 14,3 C
08.08.2009 18:30 16,4 C 86 % 1019 hPa 0,0 l/m 12,8 km/h (3 Bft) N-NO22.5 30 0 min 9,7 klux 0,00 min 14,1 C 13,6 C
08.08.2009 18:46 16,5 C 86 % 1019 hPa 0,0 l/m 12,0 km/h (2 Bft) N-NO22.5 25 0 min 12,1 klux 0,00 min 14,1 C 14,0 C
08.08.2009 19:00 16,3 C 87 % 1018 hPa 0,0 l/m 12,6 km/h (3 Bft) N45 10 0 min 5,84 klux 0,00 min 14,1 C 13,6 C
08.08.2009 19:15 16,1 C 88 % 1018 hPa 0,0 l/m 13,0 km/h (3 Bft) N-NO22.5 15 0 min 6,76 klux 0,00 min 14,1 C 13,2 C
08.08.2009 19:30 16,1 C 89 % 1018 hPa 0,0 l/m 11,2 km/h (2 Bft) N22.5 10 0 min 9,2 klux 0,00 min 14,3 C 13,8 C
08.08.2009 19:45 16,2 C 88 % 1018 hPa 0,0 l/m 10,4 km/h (2 Bft) N22.5 5 0 min 7,01 klux 0,00 min 14,2 C 14,3 C
08.08.2009 20:00 16,0 C 88 % 1018 hPa 0,0 l/m 14,3 km/h (3 Bft) N-NO22.5 25 0 min 3,47 klux 0,00 min 14,0 C 12,6 C
08.08.2009 20:15 16,0 C 89 % 1019 hPa 0,0 l/m 6,9 km/h (2 Bft) N 10 0 min 2,40 klux 0,00 min 14,2 C 15,7 C
08.08.2009 20:31 15,9 C 89 % 1018 hPa 0,0 l/m 8,0 km/h (2 Bft) N22.5 10 0 min 1,74 klux 0,00 min 14,1 C 15,0 C
08.08.2009 20:45 15,9 C 89 % 1018 hPa 0,0 l/m 4,2 km/h (1 Bft) N22.5 350 0 min 1,60 klux 0,00 min 14,1 C 15,9 C
08.08.2009 21:00 15,8 C 89 % 1018 hPa 0,0 l/m 4,8 km/h (1 Bft) N-NW22.5 340 0 min 969 lux 0,00 min 14,0 C 15,8 C
08.08.2009 21:15 15,7 C 90 % 1018 hPa 0,0 l/m 0,0 km/h (0 Bft) N-NO 15 0 min 344 lux 0,00 min 14,1 C 15,7 C
08.08.2009 21:30 15,6 C 90 % 1019 hPa 0,0 l/m 6,7 km/h (2 Bft) N 360 0 min 52 lux 0,00 min 14,0 C 15,4 C
08.08.2009 21:45 15,4 C 90 % 1019 hPa 0,0 l/m 5,6 km/h (1 Bft) N 355 0 min 6 lux 0,00 min 13,8 C 15,4 C
08.08.2009 22:00 15,3 C 90 % 1019 hPa 0,0 l/m 8,0 km/h (2 Bft) N22.5 5 0 min 0 lux 0,00 min 13,7 C 14,4 C
08.08.2009 22:16 15,2 C 91 % 1019 hPa 0,0 l/m 9,6 km/h (2 Bft) N 5 0 min 0 lux 0,00 min 13,7 C 13,5 C
08.08.2009 22:30 15,1 C 91 % 1019 hPa 0,0 l/m 9,1 km/h (2 Bft) N 10 0 min 0 lux 0,00 min 13,6 C 13,6 C
08.08.2009 22:45 15,0 C 92 % 1019 hPa 0,0 l/m 8,0 km/h (2 Bft) N 360 0 min 0 lux 0,00 min 13,7 C 14,1 C
08.08.2009 23:00 15,0 C 92 % 1019 hPa 0,0 l/m 9,0 km/h (2 Bft) N-NW22.5 335 0 min 0 lux 0,00 min 13,7 C 13,6 C
08.08.2009 23:15 15,0 C 92 % 1019 hPa 0,0 l/m 7,2 km/h (2 Bft) N22.5 5 0 min 0 lux 0,00 min 13,7 C 14,5 C
08.08.2009 23:30 14,8 C 92 % 1019 hPa 0,0 l/m 10,5 km/h (2 Bft) N45 355 0 min 0 lux 0,00 min 13,5 C 12,7 C
08.08.2009 23:45 14,7 C 93 % 1019 hPa 0,0 l/m 10,1 km/h (2 Bft) N-NO 15 0 min 0 lux 0,00 min 13,6 C 12,7 C
_ Min-Zeit 23:45 00:00 00:00 - 00:00 - - - - - 23:30 15:15
Minimum _ 14,7 C 86 % 1018 hPa - 0,0 km/h (0 Bft) - - - - - 13,5 C 12,2 C
_ Max-Zeit 13:15 06:30 10:00 04:45 15:15 - - 00:00 11:00 00:15 09:30 09:15
Maximum _ 17,7 C 93 % 1019 hPa 1,8 l/m 17,6 km/h
N-NW (3 Bft)
- - 0 min 37,8 klux 15,00 min 15,7 C 16,8 C
Durchschnitt _ 16,4 C 89 % 1019 hPa #3,0 l/m 9,2 km/h (2 Bft) N - #0 min. 8,45 klux #1:14 h 14,6 C 14,7 C